Theta_e
342 351 362 364 364 364 364 364 362 362 361 361 360 359 359 358 357 356 354 354 354 351 348 346 344 341 339 337 335 335 335 334 334 335 339 347 351 352 352 353 353 350 352
342 351 361 363 364 364 363 363 362 361 360 361 360 359 358 357 355 355 353 352 352 347 345 343 341 338 337 334 332 332 330 330 329 330 330 332 345 348 351 352 352 349 351
344 350 356 361 363 364 363 362 361 360 360 361 360 358 357 356 354 352 352 351 348 344 341 340 338 337 336 335 334 333 333 333 334 334 332 324 327 347 351 350 351 351 351
346 348 350 360 362 363 362 362 361 361 361 360 360 358 357 356 354 351 349 347 344 342 340 338 336 336 337 337 337 336 335 336 337 338 333 332 325 349 348 349 351 350 350
344 346 347 359 360 362 362 361 360 360 360 360 360 359 357 356 355 352 350 347 344 341 339 337 337 338 339 339 339 338 337 340 343 343 337 334 328 347 348 348 350 350 350
342 343 351 358 359 361 361 361 360 360 360 360 360 359 357 356 354 352 349 348 346 342 340 339 340 340 340 340 340 340 341 343 343 337 337 336 335 350 348 349 350 350 351
338 340 350 357 359 360 361 361 360 360 359 360 359 359 357 356 354 351 349 347 346 344 341 341 344 344 344 342 342 343 342 343 341 339 337 336 332 349 348 346 347 348 350
336 341 348 356 358 358 359 359 359 359 359 359 358 358 357 356 354 351 350 348 347 346 346 346 346 345 345 346 344 344 343 346 343 338 335 332 336 347 344 345 345 346 348
338 342 345 348 354 358 358 357 358 357 357 357 357 356 356 355 353 351 349 348 348 347 347 347 347 346 346 346 345 347 346 346 338 335 335 332 342 347 344 342 343 346 348
342 341 345 347 348 348 350 357 356 356 356 355 355 355 355 354 352 351 348 348 347 347 347 347 348 347 346 347 347 347 346 347 338 335 334 331 345 345 344 343 344 348 351
342 340 343 346 346 346 345 349 354 355 355 354 354 354 350 345 344 344 345 345 347 347 347 347 348 347 347 346 346 346 346 339 337 334 333 338 348 346 345 345 346 349 350
339 340 340 342 344 344 347 345 344 345 345 345 345 344 342 338 337 340 343 345 347 347 347 348 348 347 346 339 339 344 338 339 337 334 332 342 349 346 346 345 345 347 349
340 341 341 338 340 340 340 343 344 342 342 342 341 340 338 337 336 339 334 338 336 344 337 342 342 342 338 337 337 334 336 338 336 334 335 345 349 348 346 345 343 345 347
341 342 341 339 336 335 335 340 340 340 340 340 339 337 337 334 331 331 331 332 331 333 333 333 336 337 337 337 336 334 333 335 336 334 333 347 348 349 346 344 343 343 345
341 345 344 341 338 335 333 337 339 337 338 338 338 337 337 334 331 330 330 328 329 331 332 331 333 335 335 335 336 334 334 335 336 333 333 348 347 347 347 344 343 342 343
336 340 342 341 344 342 335 337 338 337 336 334 335 336 336 335 331 330 327 328 328 331 332 332 331 331 332 333 333 333 334 335 334 332 334 341 346 346 346 346 343 342 342
331 332 336 337 337 339 340 339 338 338 338 336 336 337 336 335 333 329 328 327 329 329 330 331 328 328 329 332 332 333 334 336 338 333 333 335 340 344 345 345 346 344 343
329 329 328 335 334 342 342 342 341 340 341 340 339 339 338 336 334 331 329 327 329 329 330 330 328 326 329 330 331 332 334 338 336 334 332 334 333 337 342 345 344 345 343
324 327 327 330 337 344 345 345 346 345 343 343 342 340 339 338 335 334 331 331 329 330 329 329 328 327 325 327 331 331 331 334 332 333 332 333 333 335 334 340 343 343 343
326 324 327 326 331 344 346 345 344 342 345 341 343 342 342 340 338 335 334 332 330 330 330 328 328 329 325 328 331 330 331 331 330 330 331 333 331 338 333 332 335 336 341
321 323 321 327 333 342 342 342 342 341 341 339 341 342 343 344 340 335 336 333 333 330 330 330 327 327 326 328 325 323 326 330 329 330 329 328 329 332 332 332 331 331 333
316 322 324 326 336 344 344 344 341 342 336 341 342 341 341 344 343 340 336 336 335 333 329 329 328 324 325 325 321 320 317 321 323 328 326 327 328 329 331 331 330 330 330
312 317 327 327 335 343 343 341 330 331 329 329 330 331 335 342 344 341 338 338 336 336 331 329 328 326 323 323 325 322 316 315 319 324 325 323 325 325 327 328 330 330 330
317 321 326 329 329 338 337 334 332 328 325 325 326 333 334 342 343 342 340 339 338 335 333 330 330 326 326 323 326 328 325 323 318 316 320 320 323 325 325 325 326 329 330
315 324 326 326 327 329 331 331 331 323 324 324 330 331 333 338 342 343 340 336 337 335 333 332 331 329 329 327 327 326 324 325 322 316 310 314 320 322 323 323 323 325 328
311 319 325 326 327 328 327 326 324 324 325 327 330 332 333 335 338 340 340 338 338 338 334 333 333 331 329 330 329 327 324 323 321 318 311 312 313 318 320 321 323 324 325
Wind_Speed
8 14 19 20 22 22 21 19 18 16 15 17 17 16 16 15 16 15 15 14 13 13 12 11 10 7 6 5 5 5 5 4 4 4 5 5 4 4 5 7 8 8 11
17 15 19 20 23 24 22 21 20 17 16 16 16 16 15 15 15 15 14 13 12 12 11 10 9 8 6 5 4 4 3 2 3 4 4 4 3 2 2 6 8 6 10
19 14 16 19 22 23 23 21 20 18 17 17 15 16 16 15 15 14 13 12 12 11 11 9 9 8 7 5 4 3 1 1 3 2 2 1 2 0 3 3 6 10 10
20 14 13 19 23 24 23 22 20 19 18 18 17 16 16 15 15 14 13 12 11 11 10 9 8 8 8 7 6 4 2 1 2 2 1 2 4 5 4 4 7 9 9
20 15 13 19 22 24 24 23 21 20 19 18 17 16 16 15 14 14 13 12 12 11 10 10 10 9 8 7 6 4 2 1 3 4 2 4 6 8 8 7 7 6 8
19 15 17 20 21 24 24 23 22 21 20 19 18 17 17 16 15 13 13 12 11 11 11 10 10 9 9 8 6 4 3 4 4 3 3 5 3 11 12 9 9 8 7
17 14 15 19 20 23 23 23 22 21 21 20 19 19 18 16 15 14 14 13 13 12 12 11 10 9 8 7 6 5 5 5 4 3 4 4 5 11 12 10 8 7 8
21 15 14 19 19 21 22 22 22 22 21 21 20 19 18 17 16 15 14 14 13 12 12 11 10 10 8 7 7 7 6 7 6 3 3 3 6 9 10 9 8 8 8
17 17 13 13 15 19 20 20 21 20 20 20 19 19 18 17 16 16 15 14 13 13 12 12 11 10 9 9 9 8 9 10 5 3 3 2 9 11 11 10 10 8 9
13 13 13 10 11 11 12 17 19 19 19 18 17 17 17 16 16 16 15 14 14 14 13 12 12 12 10 10 9 9 11 11 5 4 3 3 10 13 11 10 9 9 9
10 12 12 11 10 9 9 11 14 18 18 17 15 16 13 7 8 11 12 14 14 14 14 13 13 12 11 11 11 11 12 3 4 3 3 7 13 15 13 11 9 9 9
12 12 11 12 12 11 9 10 8 8 7 8 9 9 6 6 6 8 11 15 14 15 15 14 13 13 12 4 3 9 3 4 4 3 3 8 14 15 14 11 10 9 9
17 11 14 13 12 13 10 7 5 5 5 6 8 8 6 6 5 5 3 5 5 13 5 9 7 5 5 4 4 4 5 4 4 3 6 10 14 14 13 12 10 9 7
14 12 8 6 3 6 6 7 7 7 6 6 8 9 7 5 6 5 5 6 5 5 5 5 4 5 5 5 6 6 6 4 4 4 6 11 14 14 15 13 11 10 10
13 12 11 9 8 4 5 5 7 8 8 8 8 9 8 8 8 7 6 6 6 5 6 6 6 6 7 6 6 7 7 6 8 4 3 15 17 15 14 13 12 12 11
10 12 14 12 10 11 9 8 8 8 8 7 7 9 12 9 8 8 7 8 7 7 7 7 8 8 7 6 8 7 8 6 7 5 4 5 14 12 12 13 12 12 13
14 14 16 16 16 12 9 9 8 8 7 8 8 9 12 11 10 10 8 8 8 8 8 7 6 4 4 5 6 6 5 8 5 5 7 5 5 12 13 13 14 14 14
12 14 14 12 9 9 14 13 10 8 8 8 8 8 12 12 11 10 8 8 7 7 8 8 6 5 6 5 5 5 5 5 6 6 4 4 4 5 10 15 15 15 14
8 10 12 14 19 21 19 15 13 10 10 8 7 7 11 12 12 10 9 8 7 7 8 8 6 5 4 4 5 4 5 5 6 5 6 5 6 6 4 9 14 13 12
15 11 14 12 14 17 13 12 8 6 8 6 9 9 10 10 13 11 8 7 9 7 7 6 8 6 4 5 6 5 4 5 4 5 4 3 4 5 5 5 4 5 12
11 12 8 12 16 11 8 9 7 11 10 5 7 9 10 10 11 12 9 8 10 10 10 10 6 5 3 4 4 0 2 4 5 4 3 3 5 5 5 4 4 3 4
10 13 15 11 14 12 10 10 8 10 6 8 8 9 11 12 10 11 12 10 12 8 7 8 7 3 3 5 4 2 1 4 2 3 2 4 5 3 4 5 5 6 5
10 10 12 17 18 17 17 8 3 4 1 3 4 4 6 9 12 13 12 11 10 9 8 7 6 7 4 3 3 6 2 4 1 2 0 2 2 3 3 3 5 6 6
10 8 10 14 17 17 15 13 13 7 6 5 5 4 4 8 11 12 12 10 10 6 6 6 5 5 5 5 1 1 2 4 3 3 3 2 2 3 4 3 4 5 6
10 10 10 10 10 11 12 11 10 5 5 2 3 5 4 5 10 11 11 9 7 5 6 7 7 6 4 5 4 3 2 2 3 3 3 3 2 3 3 4 4 4 4
8 8 9 10 11 9 9 9 9 10 8 5 4 4 4 3 5 8 10 9 7 6 6 6 6 8 6 4 3 3 4 4 4 3 2 3 2 3 2 1 3 3 3
Wind_Direction
183 168 167 157 143 137 136 133 129 129 125 122 123 121 120 120 117 118 119 123 123 123 126 126 125 122 114 111 102 92 91 94 90 79 70 68 65 79 121 130 124 125 125
144 163 169 160 147 142 141 139 137 138 135 129 130 127 126 125 126 127 128 129 131 135 136 139 136 139 138 134 129 118 119 102 59 36 17 20 38 30 32 126 135 139 135
145 159 168 166 149 144 143 142 142 142 141 137 138 137 137 137 139 139 137 139 142 145 143 145 147 151 150 146 144 145 129 72 53 33 352 349 291 99 54 54 126 148 146
143 157 168 171 153 148 146 145 147 148 147 145 147 148 147 149 150 148 149 152 153 150 153 155 160 158 156 164 165 174 195 337 8 342 3 263 230 169 131 112 122 149 163
143 157 166 174 157 150 150 150 152 152 150 152 154 156 157 159 160 158 161 162 162 162 167 171 171 172 171 180 177 187 223 301 328 332 316 281 194 173 165 146 127 149 170
148 157 165 174 166 155 153 153 156 155 157 161 162 162 166 167 167 165 167 171 171 175 180 183 180 183 186 187 191 213 253 296 320 330 338 338 188 167 172 162 148 145 165
150 157 165 176 174 156 156 158 158 161 164 165 166 169 173 172 174 173 175 179 179 184 189 193 190 191 199 197 206 226 256 288 301 310 329 321 189 193 171 166 165 166 163
152 159 166 178 177 161 158 162 161 167 168 169 171 176 177 178 178 178 183 185 187 189 196 200 196 202 203 208 219 229 243 272 285 296 301 307 192 202 168 166 175 182 188
151 153 165 177 178 166 163 168 166 170 171 172 177 180 181 183 181 184 187 191 191 195 200 204 199 207 211 219 226 236 241 252 259 278 273 291 197 190 178 179 184 190 199
142 153 161 175 174 171 166 177 171 172 175 177 181 181 183 186 187 191 190 195 195 198 204 206 204 209 214 220 231 243 256 263 270 263 258 250 207 192 188 185 182 190 193
144 165 164 173 176 171 157 181 176 177 179 180 184 186 183 186 189 199 195 199 200 204 208 211 210 209 215 224 232 248 261 260 265 255 253 252 206 193 192 192 185 187 184
168 180 179 181 177 170 169 174 169 183 186 183 185 184 177 178 182 190 199 205 205 208 213 215 213 215 220 201 240 254 263 258 261 260 258 259 195 197 193 193 190 190 190
185 168 180 188 186 181 172 167 171 175 186 187 184 174 171 179 192 198 181 203 195 212 209 215 214 216 209 189 216 239 250 246 250 239 259 243 201 199 197 198 192 193 192
162 167 169 147 199 220 175 175 184 181 188 193 194 180 176 184 188 199 188 197 189 204 192 200 194 209 210 205 206 230 244 245 248 240 245 232 190 197 204 202 192 199 197
159 152 140 133 137 185 263 205 178 197 202 197 189 190 187 191 193 189 197 188 196 188 190 200 202 210 213 210 224 221 241 237 246 231 235 210 196 203 203 204 195 199 207
139 150 152 157 173 182 179 232 209 187 203 198 196 193 195 196 191 195 195 199 196 193 195 202 205 212 212 202 225 229 231 239 241 225 212 218 195 199 208 202 200 207 209
161 162 167 174 179 184 166 220 219 200 190 203 205 196 194 195 194 196 198 204 201 194 189 202 213 204 192 206 214 227 218 237 229 228 200 195 193 201 208 202 197 206 214
174 170 180 178 170 171 194 214 214 201 196 207 205 193 197 195 191 196 197 205 195 185 187 200 202 199 205 205 211 225 225 203 227 232 201 174 215 212 214 210 209 209 211
247 217 195 180 179 190 201 203 202 192 201 205 195 195 196 195 197 194 202 197 177 192 192 192 205 191 185 197 210 226 232 227 218 203 192 217 207 217 199 223 216 218 217
209 225 215 204 188 182 195 204 204 191 202 187 200 202 188 198 198 195 200 190 180 191 197 183 192 202 173 193 209 207 218 222 221 218 213 211 219 219 202 210 230 226 222
197 203 238 259 206 198 179 184 205 213 215 213 214 201 196 202 192 192 198 186 186 199 199 194 180 178 188 159 116 338 268 253 241 250 244 234 217 210 209 201 213 210 237
196 201 210 212 239 201 198 203 204 200 213 214 206 207 195 206 193 190 195 193 195 193 178 180 178 146 171 167 148 111 319 316 305 286 255 246 226 212 213 206 212 203 213
223 202 202 204 205 213 202 187 81 91 75 144 215 214 207 190 190 192 190 191 188 189 188 186 181 159 152 197 206 144 110 225 323 332 340 217 200 207 232 234 222 191 192
233 216 200 201 201 200 198 188 188 177 173 210 179 189 205 188 192 183 181 178 184 173 165 186 169 163 140 159 162 138 111 147 166 331 337 354 244 234 233 239 224 199 197
216 198 205 186 187 199 186 189 194 170 193 171 172 195 200 184 179 177 167 158 158 158 171 177 170 159 160 151 153 146 113 99 101 150 256 303 339 265 263 248 202 197 193
244 209 185 178 195 204 192 201 185 184 192 173 183 195 193 168 158 156 152 160 162 160 168 177 178 162 169 141 154 164 154 157 184 169 159 240 212 284 279 224 203 200 206